Location: Briarstone Lake
(43.1454°N, 93.2359°W)
Time: 20:05:38
(UTC+00:00)

BlueWalker 3 - Pass Details

Date: 31 January 2026
Orbit: 450 x 461 km, 53.2° (Epoch: 11 February)

Event Time Altitude Azimuth Distance (km) Brightness Sun altitude
Rises 00:44:08 0° 299° (WNW) 2,459 6.3 -15.0°
Reaches altitude 10° 00:46:54 10° 322° (NW) 1,585 4.8 -15.5°
Maximum altitude 00:49:12 16° 2° (N) 1,260 3.8 -15.9°
Enters shadow 00:50:02 15° 19° (NNE) 1,307 3.8 -16.1°
